Location: Banff
(51.1667°N, 115.5667°W)
Time: 14:15:49
(UTC+00:00)

Tiros 1 - Pass Details

Date: 04 August 2021
Orbit: 630 x 663 km, 48.4° (Epoch: 27 September)

Event Time Altitude Azimuth Distance (km) Brightness Sun altitude
Rises 04:45:00 0° 275° (W) 2,979 11.4 -10.8°
Reaches altitude 10° 04:47:24 10° 270° (W) 2,061 10.4 -11.0°
Maximum altitude 04:51:59 51° 196° (SSW) 818 7.5 -11.5°
Enters shadow 04:55:28 17° 125° (SE) 1,644 8.6 -11.9°
